Weather History for Key West NAF, FL

Change the Weather History Date:

Friday, November 9, 2012

  Actual Average Record
Temperature  
Mean Temperature 68 °F -  
Max Temperature 71 °F 81 °F 87 °F (1989)
Min Temperature 64 °F 72 °F 61 °F (1951)
Cooling Degree Days 2    
Growing Degree Days 18 (Base 50)    
Moisture  
Dew Point 55 °F    
Average Humidity 62    
Maximum Humidity 69    
Minimum Humidity 50    
Precipitation  
Precipitation 0.00 in - - ()
Sea Level Pressure  
Sea Level Pressure 30.14 in    
Wind  
Wind Speed 10 mph (NE)    
Max Wind Speed 17 mph    
Max Gust Speed 24 mph    
Visibility 10 miles    
Events      
Averages and records for this station are not official NWS values.
T = Trace of Precipitation, MM = Missing Value Source: NWS Daily Summary

Daily Weather History Graph

Daily Weather History Graph

Search for Another Location

Airport:

Trip Planner

Search our weather history database for the weather conditions in past years. The results will help you decide how hot, cold, wet, or windy it might be!

Date:

Astronomy

Nov. 09, 2012 Rise Set
Actual Time 6:38 AM EST 5:41 PM EST
Civil Twilight 6:15 AM EST 6:05 PM EST
Nautical Twilight 5:47 AM EST 6:33 PM EST
Astronomical Twilight 5:20 AM EST 7:00 PM EST
Moon 2:05 AM EST (11/9) 2:29 PM EST (11/9)
Length of Visible Light 11h 50m
Length of Day
11h 03m
Waning Crescent, 23% of the Moon is Illuminated
Nov 9
Waning Crescent
Nov 13
New
Nov 20
First Quarter
Nov 28
Full
Dec 6
Last Quarter

Hourly Weather History & Observations

Time (EST) Temp. Dew Point Humidity Pressure Visibility Wind Dir Wind Speed Gust Speed Precip Events Conditions
12:53 AM - - N/A% 30.13 in 10.0 mi NE 5.8 mph - N/A   Clear
1:53 AM - - N/A% 30.12 in 10.0 mi NE 4.6 mph - N/A   Clear
2:53 AM - - N/A% 30.12 in 10.0 mi NE 5.8 mph - N/A   Scattered Clouds
3:53 AM - - N/A% 30.12 in 10.0 mi NE 11.5 mph - N/A   Scattered Clouds
4:53 AM - - N/A% 30.12 in 10.0 mi NE 11.5 mph - N/A   Clear
5:53 AM - - N/A% 30.14 in 10.0 mi NNE 6.9 mph - N/A   Overcast
5:56 AM 64.4 °F 51.8 °F 64% 30.14 in 10.0 mi NNE 9.2 mph - N/A   Mostly Cloudy
6:53 AM 64.4 °F 51.1 °F 62% 30.15 in 10.0 mi NNE 10.4 mph - N/A   Scattered Clouds
7:53 AM 66.2 °F 54.0 °F 65% 30.17 in 10.0 mi NNE 11.5 mph 18.4 mph N/A   Partly Cloudy
8:53 AM 66.2 °F 55.9 °F 69% 30.18 in 10.0 mi NE 12.7 mph - N/A   Partly Cloudy
9:53 AM 68.0 °F 57.0 °F 68% 30.19 in 10.0 mi NNE 15.0 mph - N/A   Partly Cloudy
10:53 AM 69.8 °F 59.0 °F 68% 30.19 in 10.0 mi NE 12.7 mph 20.7 mph N/A   Partly Cloudy
11:53 AM 69.8 °F 57.9 °F 66% 30.17 in 10.0 mi NE 17.3 mph 21.9 mph N/A   Partly Cloudy
12:53 PM 71.6 °F 57.9 °F 62% 30.14 in 10.0 mi NE 16.1 mph 23.0 mph N/A   Partly Cloudy
1:53 PM 71.6 °F 57.9 °F 62% 30.12 in 10.0 mi NE 17.3 mph 24.2 mph N/A   Partly Cloudy
2:53 PM 71.6 °F 55.9 °F 58% 30.11 in 10.0 mi NE 11.5 mph 20.7 mph N/A   Partly Cloudy
3:53 PM 71.6 °F 55.0 °F 56% 30.11 in 10.0 mi ENE 16.1 mph 24.2 mph N/A   Partly Cloudy
4:53 PM 71.6 °F 52.0 °F 50% 30.11 in 10.0 mi ENE 13.8 mph 20.7 mph N/A   Partly Cloudy
5:53 PM 69.8 °F 53.1 °F 55% 30.13 in 10.0 mi ENE 12.7 mph - N/A   Partly Cloudy
6:53 PM 66.2 °F 53.1 °F 63% 30.13 in 10.0 mi ENE 13.8 mph 19.6 mph N/A   Partly Cloudy
7:53 PM 66.2 °F 52.0 °F 60% 30.15 in 10.0 mi NE 9.2 mph - N/A   Partly Cloudy
8:53 PM 66.2 °F 54.0 °F 65% 30.17 in 10.0 mi NE 8.1 mph 19.6 mph N/A   Partly Cloudy
9:53 PM 66.2 °F 54.0 °F 65% 30.17 in 10.0 mi NE 10.4 mph 18.4 mph N/A   Partly Cloudy
10:53 PM - - N/A% 30.17 in 10.0 mi NE 10.4 mph 16.1 mph N/A   Overcast
11:53 PM - - N/A% 30.16 in 10.0 mi NE 12.7 mph - N/A   Overcast